User: anonymous   Login
Location: Demmingen
(48.6757°N, 10.4375°E)
Time: 22:15:44
(UTC+00:00)
Language:

Cosmos 1892 - Orbit

View from above orbital plane
View from above orbital plane
View from above satellite
View from above satellite

Ground track
Ground track

The orbit data is extracted from the following two-line orbital elements,

1 18421U 87088A   24204.08598581  .00017832  00000-0  51054-3 0  9992
2 18421  82.4892 222.0869 0009264 219.2616 140.7957 15.35768681 12240
Epoch (UTC): 22 July 2024 02:03:49
Eccentricity: 0.0009264
inclination: 82.4892°
perigee height: 452 km
apogee height: 465 km
right ascension of ascending node: 222.0869°
argument of perigee: 219.2616°
revolutions per day: 15.35768681
mean anomaly at epoch: 140.7957°
orbit number at epoch: 1224

The dashed part of the orbit path shows where the satellite is in the earth's shadow,  

DLR